Flag for Ecuador Weather past 2 weeks in Guayaquil, Ecuador

Now
72 °F

Clear.


Feels Like: 71 °F
Forecast: 73 / 89 °F
Wind: 5 mph from Southwest

Location: Guayaquil / Simon Bolivar

Current Time: Jul 22, 2014 at 2:54:42 AM

Latest Report: Jul 22, 2014 at 2:00 AM


Visibility: 10 mi

Pressure: 29.80 "Hg

Humidity: 83%

Dew point: 66 °F

Location of GuayaquilLocation

Historic Weather in Guayaquil — Graph

°F

Guayaquil temperature yesterday

Maximum temperature yesterday: 88 °F (at 3:00 PM)
Minimum temperature yesterday: 72 °F (at 1:00 AM)
Average temperature yesterday: 78 °F

Past Weeks' High & Low Weather Summary

 TemperatureHumidityPressure
High91 °F (Jul 10, 3:00 PM)83% (Jul 7, 7:00 AM)29.92 "Hg (Jul 7, 7:00 AM)
Low72 °F (Jul 14, 12:00 AM)49% (Jul 10, 3:00 PM)29.65 "Hg (Jul 10, 4:00 PM)
Average78 °F71%29.84 "Hg
* Reported Jul 7 1:00 AM — Jul 22 1:00 AM, Guayaquil, Weather by CustomWeather, © 2014

Note: Actual official high and low records may vary slightly from our data, if they occured in-between our weather recording intervals... More about our weather records

Advertising

Guayaquil weather history for July 12, 2014

 ConditionsComfort  
Time TempWeatherWind HumidityBarometerVisibility
12:00 AM
Jul 12
75 °FPartly cloudy.5 mph74%29.83 "HgN/A
1:00 AM77 °FPartly cloudy.5 mph65%29.83 "HgN/A
2:00 AM75 °FPartly cloudy.7 mph69%29.83 "HgN/A
4:00 AM73 °FPassing clouds.7 mph78%29.80 "HgN/A
5:00 AM73 °FPassing clouds.8 mph83%29.80 "HgN/A
6:00 AM73 °FPassing clouds.6 mph78%29.80 "HgN/A
7:00 AM73 °FPassing clouds.6 mph78%29.80 "HgN/A
8:00 AM75 °FPassing clouds.8 mph78%29.80 "HgN/A
9:00 AM81 °FSunny.7 mph66%29.80 "Hg10 mi
10:00 AM82 °FPassing clouds.8 mph66%29.80 "HgN/A
11:00 AM84 °FPassing clouds.7 mph62%29.77 "HgN/A
12:00 PM86 °FScattered clouds.7 mph59%29.77 "HgN/A
1:00 PM88 °FScattered clouds.7 mph55%29.74 "HgN/A
2:00 PM90 °FScattered clouds.7 mph52%29.74 "HgN/A
3:00 PM90 °FScattered clouds.5 mph55%29.71 "HgN/A
4:00 PM90 °FScattered clouds.6 mph52%29.71 "HgN/A
5:00 PM88 °FScattered clouds.5 mph59%29.71 "HgN/A
6:00 PM86 °FScattered clouds.10 mph59%29.74 "HgN/A
7:00 PM84 °FPassing clouds.10 mph62%29.74 "HgN/A
8:00 PM81 °FPassing clouds.7 mph62%29.77 "HgN/A
9:00 PM77 °FPassing clouds.10 mph69%29.80 "HgN/A
10:00 PM77 °FClear.14 mph69%29.80 "Hg10 mi
11:00 PM75 °FClear.14 mph74%29.83 "Hg10 mi
Weather by CustomWeather, © 2014

See weather overviewHow to use our weather pages